Zurück zum Katalog

STARLINK-32774

AktivKommunikationVLEO
NORAD 62737·PAYLOAD·🇺🇸 United States

Gestartet Jan 21, 2025 von Cape Canaveral Space Force Station

Loading…

Nächste Überflüge (nächste 24 Stunden)

TLE

AktuellSource: CelesTrak SupGP

Epoche: Sep 15, 2026, 02:07 UTC

1 62737C 25014C   26258.08868056 -.00025987  00000+0 -94152-3 0  2585
2 62737  43.0026 167.9999 0001345 276.0123 175.6138 15.27581865    16

Verfolge STARLINK-32774 in Echtzeit mit AllMySat

Download on the App Store